LNI854 WAAA-WAFF

Flight info

Callsign LNI854
Flight time 0h 53m
Altitude 28000
Route NIVEK
Aircraft B739/M-SDE2E3FGHIRWXY/LB1

Departure

Time 2026-04-20 05:57
Airport Sultan Hasanuddin International Airport (WAAA)

Arrival

Time 2026-04-20 06:50
Airport Mutiara - SIS Al-Jufrie Airport (WAFF)
Time Latitude Longitude Altitude Speed Heading
2026-04-20 05:11 -5.07659 119.54797 40 ft 0 kts 300°
2026-04-20 05:46 -5.07661 119.54801 40 ft 2 kts 299°
2026-04-20 05:46 -5.07670 119.54818 40 ft 3 kts 293°
2026-04-20 05:46 -5.07678 119.54836 39 ft 3 kts 287°
2026-04-20 05:46 -5.07683 119.54856 39 ft 3 kts 284°
2026-04-20 05:47 -5.07688 119.54875 40 ft 3 kts 299°
2026-04-20 05:47 -5.07693 119.54885 40 ft 3 kts
2026-04-20 05:47 -5.07694 119.54886 40 ft 0 kts 29°
2026-04-20 05:50 -5.07683 119.54892 40 ft 6 kts 29°
2026-04-20 05:51 -5.07647 119.54913 40 ft 3 kts 31°
2026-04-20 05:51 -5.07628 119.54925 40 ft 4 kts 31°
2026-04-20 05:51 -5.07595 119.54953 39 ft 8 kts 49°
2026-04-20 05:51 -5.07583 119.55019 40 ft 11 kts 102°
2026-04-20 05:52 -5.07618 119.55089 40 ft 11 kts 106°
2026-04-20 05:52 -5.07583 119.55150 38 ft 12 kts 30°
2026-04-20 05:52 -5.07506 119.55195 40 ft 14 kts 30°
2026-04-20 05:52 -5.07413 119.55249 38 ft 17 kts 31°
2026-04-20 05:53 -5.07306 119.55311 40 ft 19 kts 29°
2026-04-20 05:53 -5.07190 119.55378 39 ft 19 kts 30°
2026-04-20 05:53 -5.07078 119.55444 40 ft 18 kts 31°
2026-04-20 05:53 -5.06962 119.55509 40 ft 21 kts 28°
2026-04-20 05:54 -5.06828 119.55585 40 ft 23 kts 29°
2026-04-20 05:54 -5.06703 119.55656 40 ft 18 kts 30°
2026-04-20 05:54 -5.06671 119.55735 40 ft 7 kts 112°
2026-04-20 05:54 -5.06673 119.55739 40 ft 0 kts 119°
2026-04-20 05:55 -5.06683 119.55754 40 ft 9 kts 126°
2026-04-20 05:55 -5.06739 119.55821 40 ft 13 kts 146°
2026-04-20 05:55 -5.06780 119.55815 40 ft 2 kts 209°
2026-04-20 05:56 -5.06790 119.55810 38 ft 2 kts 209°
2026-04-20 05:56 -5.06864 119.55767 39 ft 37 kts 210°
2026-04-20 05:56 -5.07305 119.55513 38 ft 107 kts 210°
2026-04-20 05:56 -5.08122 119.55042 40 ft 161 kts 212°
2026-04-20 05:57 -5.09177 119.54439 352 ft 181 kts 213°
2026-04-20 05:57 -5.10284 119.53800 994 ft 182 kts 214°
2026-04-20 05:57 -5.11424 119.53118 1470 ft 203 kts 213°
2026-04-20 05:57 -5.12686 119.52324 1702 ft 229 kts 220°
2026-04-20 05:58 -5.13600 119.51007 2173 ft 242 kts 253°
2026-04-20 05:58 -5.13786 119.49254 2598 ft 261 kts 271°
2026-04-20 05:58 -5.13770 119.47401 3342 ft 269 kts 272°
2026-04-20 05:58 -5.13267 119.45597 4095 ft 273 kts 305°
2026-04-20 05:59 -5.11832 119.44365 4854 ft 276 kts 338°
2026-04-20 05:59 -5.09984 119.43805 5598 ft 280 kts 348°
2026-04-20 05:59 -5.08085 119.43330 6402 ft 282 kts 347°
2026-04-20 05:59 -5.06178 119.42839 7186 ft 284 kts 347°
2026-04-20 06:00 -5.04281 119.42333 7926 ft 288 kts 346°
2026-04-20 06:00 -5.02309 119.41783 8642 ft 293 kts 346°
2026-04-20 06:00 -5.00337 119.41221 9414 ft 295 kts 345°
2026-04-20 06:00 -4.98347 119.40650 10157 ft 298 kts 345°
2026-04-20 06:01 -4.96328 119.40068 10525 ft 315 kts 344°
2026-04-20 06:01 -4.94146 119.39427 10726 ft 336 kts 344°
2026-04-20 06:01 -4.91887 119.38752 11296 ft 341 kts 344°
2026-04-20 06:01 -4.89602 119.38065 11934 ft 344 kts 343°
2026-04-20 06:02 -4.87288 119.37369 12507 ft 350 kts 343°
2026-04-20 06:02 -4.84938 119.36662 13134 ft 353 kts 343°
2026-04-20 06:02 -4.82573 119.35951 13770 ft 356 kts 343°
2026-04-20 06:02 -4.80182 119.35233 14279 ft 361 kts 343°
2026-04-20 06:03 -4.77750 119.34503 14796 ft 366 kts 344°
2026-04-20 06:03 -4.75314 119.33769 15434 ft 366 kts 343°
2026-04-20 06:03 -4.72856 119.33031 15925 ft 371 kts 344°
2026-04-20 06:03 -4.70368 119.32285 16468 ft 375 kts 344°
2026-04-20 06:04 -4.67861 119.31533 17016 ft 377 kts 344°
2026-04-20 06:04 -4.65366 119.30784 17564 ft 380 kts 344°
2026-04-20 06:04 -4.62815 119.30016 18035 ft 385 kts 343°
2026-04-20 06:04 -4.60238 119.29244 18485 ft 387 kts 343°
2026-04-20 06:05 -4.57654 119.28467 18975 ft 388 kts 343°
2026-04-20 06:05 -4.55051 119.27683 19334 ft 393 kts 343°
2026-04-20 06:05 -4.52408 119.26890 19737 ft 396 kts 343°
2026-04-20 06:05 -4.49774 119.26101 20288 ft 395 kts 343°
2026-04-20 06:06 -4.47126 119.25308 20649 ft 400 kts 343°
2026-04-20 06:06 -4.44436 119.24504 20996 ft 404 kts 343°
2026-04-20 06:06 -4.41751 119.23702 21563 ft 402 kts 343°
2026-04-20 06:06 -4.39060 119.22898 21992 ft 405 kts 343°
2026-04-20 06:07 -4.36344 119.22085 22305 ft 409 kts 343°
2026-04-20 06:07 -4.33608 119.21264 22683 ft 412 kts 343°
2026-04-20 06:07 -4.30897 119.20450 23107 ft 412 kts 343°
2026-04-20 06:07 -4.28145 119.19623 23489 ft 414 kts 343°
2026-04-20 06:08 -4.25373 119.18789 23785 ft 417 kts 343°
2026-04-20 06:08 -4.22588 119.17953 24090 ft 419 kts 343°
2026-04-20 06:08 -4.19787 119.17114 24398 ft 421 kts 343°
2026-04-20 06:08 -4.16974 119.16272 24707 ft 422 kts 344°
2026-04-20 06:09 -4.14153 119.15431 25021 ft 424 kts 344°
2026-04-20 06:09 -4.11317 119.14584 25344 ft 426 kts 344°
2026-04-20 06:09 -4.08477 119.13736 25647 ft 428 kts 344°
2026-04-20 06:09 -4.05611 119.12880 25931 ft 430 kts 344°
2026-04-20 06:10 -4.02740 119.12022 26217 ft 432 kts 344°
2026-04-20 06:10 -3.99859 119.11161 26562 ft 432 kts 344°
2026-04-20 06:10 -3.96990 119.10303 26995 ft 430 kts 345°
2026-04-20 06:10 -3.94128 119.09446 27442 ft 428 kts 345°
2026-04-20 06:11 -3.91272 119.08591 27807 ft 429 kts 345°
2026-04-20 06:11 -3.88403 119.07731 27812 ft 433 kts 345°
2026-04-20 06:11 -3.85495 119.06861 27843 ft 439 kts 345°
2026-04-20 06:11 -3.82551 119.05980 27846 ft 444 kts 345°
2026-04-20 06:12 -3.79611 119.05100 27847 ft 450 kts 345°
2026-04-20 06:12 -3.76600 119.04200 27846 ft 454 kts 345°
2026-04-20 06:12 -3.73556 119.03289 27843 ft 457 kts 345°
2026-04-20 06:12 -3.70504 119.02376 27837 ft 457 kts 345°
2026-04-20 06:13 -3.67454 119.01463 27835 ft 457 kts 345°
2026-04-20 06:13 -3.64403 119.00551 27830 ft 457 kts 345°
2026-04-20 06:13 -3.61355 118.99639 27836 ft 457 kts 345°
2026-04-20 06:13 -3.58307 118.98727 27839 ft 457 kts 345°
2026-04-20 06:14 -3.55256 118.97813 27838 ft 457 kts 345°
2026-04-20 06:14 -3.52207 118.96900 27841 ft 458 kts 345°
2026-04-20 06:14 -3.49158 118.95985 27833 ft 457 kts 345°
2026-04-20 06:14 -3.46104 118.95070 27856 ft 457 kts 345°
2026-04-20 06:15 -3.43059 118.94161 27852 ft 457 kts 345°
2026-04-20 06:15 -3.40004 118.93246 27858 ft 457 kts 345°
2026-04-20 06:15 -3.36956 118.92336 27858 ft 457 kts 345°
2026-04-20 06:15 -3.33913 118.91429 27853 ft 457 kts 345°
2026-04-20 06:16 -3.30864 118.90518 27863 ft 457 kts 345°
2026-04-20 06:16 -3.27816 118.89607 27855 ft 456 kts 345°
2026-04-20 06:16 -3.24775 118.88700 27851 ft 456 kts 345°
2026-04-20 06:16 -3.21736 118.87791 27858 ft 456 kts 345°
2026-04-20 06:17 -3.18736 118.86893 27848 ft 456 kts 345°
2026-04-20 06:17 -3.15657 118.85972 27851 ft 456 kts 345°
2026-04-20 06:17 -3.12650 118.85072 27846 ft 456 kts 345°
2026-04-20 06:17 -3.09608 118.84164 27854 ft 456 kts 345°
2026-04-20 06:18 -3.06566 118.83256 27860 ft 456 kts 345°
2026-04-20 06:18 -3.03527 118.82351 27860 ft 456 kts 345°
2026-04-20 06:18 -3.00483 118.81441 27859 ft 456 kts 345°
2026-04-20 06:18 -2.97437 118.80528 27860 ft 456 kts 345°
2026-04-20 06:19 -2.94394 118.79617 27865 ft 456 kts 345°
2026-04-20 06:19 -2.91355 118.78708 27860 ft 456 kts 345°
2026-04-20 06:19 -2.88314 118.77798 27850 ft 456 kts 345°
2026-04-20 06:19 -2.85262 118.76886 27848 ft 456 kts 345°
2026-04-20 06:20 -2.82223 118.75979 27853 ft 456 kts 345°
2026-04-20 06:20 -2.79220 118.75080 27849 ft 456 kts 345°
2026-04-20 06:20 -2.76188 118.74171 27850 ft 456 kts 345°
2026-04-20 06:20 -2.73146 118.73261 27850 ft 456 kts 345°
2026-04-20 06:21 -2.70097 118.72351 27848 ft 456 kts 345°
2026-04-20 06:21 -2.67002 118.71736 27833 ft 453 kts
2026-04-20 06:21 -2.63883 118.72039 27850 ft 450 kts 16°
2026-04-20 06:21 -2.60933 118.73061 27866 ft 449 kts 22°
2026-04-20 06:22 -2.58015 118.74207 27849 ft 450 kts 23°
2026-04-20 06:22 -2.55106 118.75369 27845 ft 450 kts 23°
2026-04-20 06:22 -2.52195 118.76526 27843 ft 450 kts 23°
2026-04-20 06:22 -2.49277 118.77673 27844 ft 451 kts 22°
2026-04-20 06:23 -2.46353 118.78810 27850 ft 451 kts 22°
2026-04-20 06:23 -2.43453 118.79927 27850 ft 451 kts 22°
2026-04-20 06:23 -2.40517 118.81052 27842 ft 452 kts 22°
2026-04-20 06:23 -2.37578 118.82173 27842 ft 452 kts 22°
2026-04-20 06:24 -2.34640 118.83294 27839 ft 452 kts 22°
2026-04-20 06:24 -2.31693 118.84419 27836 ft 452 kts 22°
2026-04-20 06:24 -2.28754 118.85542 27837 ft 453 kts 22°
2026-04-20 06:24 -2.25813 118.86665 27845 ft 452 kts 22°
2026-04-20 06:25 -2.22873 118.87788 27837 ft 452 kts 22°
2026-04-20 06:25 -2.19929 118.88912 27839 ft 452 kts 22°
2026-04-20 06:25 -2.16994 118.90031 27842 ft 452 kts 22°
2026-04-20 06:25 -2.14056 118.91155 27843 ft 452 kts 22°
2026-04-20 06:26 -2.11117 118.92278 27840 ft 452 kts 22°
2026-04-20 06:26 -2.08171 118.93405 27846 ft 452 kts 22°
2026-04-20 06:26 -2.06230 118.94147 27846 ft 452 kts 22°
2026-04-20 06:26 -2.03283 118.95273 27841 ft 453 kts 22°
2026-04-20 06:27 -2.00342 118.96395 27835 ft 452 kts 22°
2026-04-20 06:27 -1.97405 118.97516 27835 ft 452 kts 22°
2026-04-20 06:27 -1.94464 118.98640 27840 ft 453 kts 22°
2026-04-20 06:27 -1.91523 118.99763 27842 ft 453 kts 22°
2026-04-20 06:28 -1.88602 119.00878 27834 ft 453 kts 22°
2026-04-20 06:28 -1.85658 119.02004 27837 ft 453 kts 22°
2026-04-20 06:28 -1.82711 119.03129 27845 ft 453 kts 22°
2026-04-20 06:28 -1.79760 119.04255 27842 ft 454 kts 22°
2026-04-20 06:29 -1.76805 119.05381 27841 ft 454 kts 22°
2026-04-20 06:29 -1.73846 119.06511 27840 ft 455 kts 22°
2026-04-20 06:29 -1.70893 119.07638 27838 ft 455 kts 22°
2026-04-20 06:29 -1.67927 119.08771 27838 ft 455 kts 22°
2026-04-20 06:30 -1.64965 119.09901 27835 ft 455 kts 22°
2026-04-20 06:30 -1.62003 119.11032 27838 ft 455 kts 22°
2026-04-20 06:30 -1.59040 119.12162 27758 ft 458 kts 22°
2026-04-20 06:30 -1.56032 119.13312 27259 ft 466 kts 22°
2026-04-20 06:31 -1.53007 119.14468 26731 ft 465 kts 22°
2026-04-20 06:31 -1.49990 119.15620 26205 ft 462 kts 22°
2026-04-20 06:31 -1.46990 119.16764 25673 ft 461 kts 22°
2026-04-20 06:31 -1.44037 119.17889 25173 ft 459 kts 21°
2026-04-20 06:32 -1.41060 119.19023 24706 ft 456 kts 21°
2026-04-20 06:32 -1.38104 119.20149 24245 ft 453 kts 21°
2026-04-20 06:32 -1.35165 119.21270 23791 ft 451 kts 21°
2026-04-20 06:32 -1.32243 119.22383 23325 ft 448 kts 21°
2026-04-20 06:33 -1.29340 119.23490 22791 ft 445 kts 21°
2026-04-20 06:33 -1.26465 119.24588 22259 ft 441 kts 21°
2026-04-20 06:33 -1.23600 119.25683 21739 ft 439 kts 21°
2026-04-20 06:33 -1.20752 119.26772 21191 ft 436 kts 21°
2026-04-20 06:34 -1.17925 119.27853 20652 ft 433 kts 21°
2026-04-20 06:34 -1.15147 119.28916 20114 ft 430 kts 21°
2026-04-20 06:34 -1.09608 119.31034 19075 ft 421 kts 21°
2026-04-20 06:35 -1.06882 119.32074 18586 ft 416 kts 21°
2026-04-20 06:35 -1.04192 119.33100 18104 ft 411 kts 21°
2026-04-20 06:35 -1.01527 119.34116 17531 ft 407 kts 21°
2026-04-20 06:35 -0.98890 119.35121 16996 ft 403 kts 21°
2026-04-20 06:36 -0.96282 119.36115 16462 ft 399 kts 21°
2026-04-20 06:36 -0.93695 119.37101 15928 ft 396 kts 21°
2026-04-20 06:36 -0.91164 119.38067 15394 ft 393 kts 21°
2026-04-20 06:36 -0.88616 119.39039 14865 ft 391 kts 21°
2026-04-20 06:37 -0.86087 119.40005 14349 ft 387 kts 21°
2026-04-20 06:37 -0.83576 119.40961 13814 ft 385 kts 21°
2026-04-20 06:37 -0.81085 119.41909 13262 ft 383 kts 20°
2026-04-20 06:37 -0.78607 119.42855 12692 ft 380 kts 20°
2026-04-20 06:38 -0.76147 119.43795 12146 ft 377 kts 21°
2026-04-20 06:38 -0.73717 119.44752 11613 ft 374 kts 25°
2026-04-20 06:38 -0.71629 119.46270 11074 ft 371 kts 47°
2026-04-20 06:38 -0.70228 119.48331 11088 ft 344 kts 63°
2026-04-20 06:39 -0.69254 119.50420 11108 ft 318 kts 66°
2026-04-20 06:39 -0.68407 119.52374 11107 ft 295 kts 67°
2026-04-20 06:39 -0.67621 119.54202 11089 ft 281 kts 67°
2026-04-20 06:39 -0.66831 119.56019 10803 ft 287 kts 66°
2026-04-20 06:40 -0.66036 119.57824 10530 ft 282 kts 66°
2026-04-20 06:40 -0.65254 119.59584 10235 ft 279 kts 66°
2026-04-20 06:40 -0.64459 119.61364 9971 ft 275 kts 66°
2026-04-20 06:40 -0.63688 119.63082 9701 ft 273 kts 66°
2026-04-20 06:41 -0.62910 119.64812 9402 ft 272 kts 66°
2026-04-20 06:41 -0.62136 119.66533 9101 ft 271 kts 66°
2026-04-20 06:41 -0.61366 119.68243 8800 ft 269 kts 66°
2026-04-20 06:41 -0.60600 119.69944 8505 ft 266 kts 66°
2026-04-20 06:42 -0.59850 119.71613 8206 ft 260 kts 66°
2026-04-20 06:42 -0.59158 119.73249 7994 ft 249 kts 75°
2026-04-20 06:42 -0.59146 119.74890 7979 ft 228 kts 108°
2026-04-20 06:42 -0.59871 119.76274 7721 ft 231 kts 130°
2026-04-20 06:43 -0.61067 119.77301 7373 ft 224 kts 151°
2026-04-20 06:43 -0.62470 119.77960 7017 ft 221 kts 156°
2026-04-20 06:43 -0.63845 119.78557 6647 ft 214 kts 157°
2026-04-20 06:43 -0.65187 119.79139 6314 ft 206 kts 156°
2026-04-20 06:44 -0.66479 119.79703 5985 ft 199 kts 156°
2026-04-20 06:44 -0.67721 119.80251 5653 ft 192 kts 156°
2026-04-20 06:44 -0.68937 119.80787 5341 ft 191 kts 158°
2026-04-20 06:44 -0.70146 119.81321 5065 ft 189 kts 156°
2026-04-20 06:45 -0.71349 119.81853 4771 ft 188 kts 156°
2026-04-20 06:45 -0.72547 119.82384 4467 ft 188 kts 156°
2026-04-20 06:45 -0.73729 119.82910 4176 ft 183 kts 156°
2026-04-20 06:45 -0.74886 119.83423 3873 ft 182 kts 156°
2026-04-20 06:46 -0.76039 119.83937 3595 ft 179 kts 156°
2026-04-20 06:46 -0.77165 119.84440 3316 ft 174 kts 156°
2026-04-20 06:46 -0.78256 119.84914 3083 ft 173 kts 158°
2026-04-20 06:46 -0.79375 119.85409 2788 ft 177 kts 155°
2026-04-20 06:47 -0.80477 119.85906 2498 ft 168 kts 156°
2026-04-20 06:47 -0.81515 119.86367 2225 ft 161 kts 156°
2026-04-20 06:47 -0.82525 119.86816 2015 ft 162 kts 155°
2026-04-20 06:47 -0.83555 119.87265 1800 ft 161 kts 157°
2026-04-20 06:48 -0.84592 119.87684 1549 ft 160 kts 158°
2026-04-20 06:48 -0.85622 119.88115 1326 ft 162 kts 157°
2026-04-20 06:48 -0.86644 119.88580 1154 ft 161 kts 155°
2026-04-20 06:48 -0.87650 119.89064 936 ft 159 kts 156°
2026-04-20 06:49 -0.88675 119.89525 693 ft 164 kts 156°
2026-04-20 06:49 -0.89698 119.89989 471 ft 161 kts 156°
2026-04-20 06:49 -0.90711 119.90449 270 ft 158 kts 156°
2026-04-20 06:49 -0.91642 119.90868 226 ft 131 kts 155°
2026-04-20 06:50 -0.92259 119.91152 221 ft 62 kts 155°
2026-04-20 06:50 -0.92547 119.91288 221 ft 37 kts 155°
2026-04-20 06:50 -0.92696 119.91362 221 ft 11 kts 194°
2026-04-20 06:50 -0.92687 119.91337 220 ft 9 kts 337°
2026-04-20 06:51 -0.92586 119.91295 223 ft 21 kts 336°
2026-04-20 06:51 -0.92430 119.91225 223 ft 25 kts 335°
2026-04-20 06:51 -0.92281 119.91158 222 ft 23 kts 336°
2026-04-20 06:51 -0.92136 119.91094 228 ft 22 kts 335°
2026-04-20 06:52 -0.91996 119.91030 226 ft 22 kts 335°
2026-04-20 06:52 -0.91878 119.90969 228 ft 15 kts 309°
2026-04-20 06:52 -0.91887 119.90897 225 ft 10 kts 243°
2026-04-20 06:52 -0.91914 119.90842 224 ft 8 kts 248°
2026-04-20 06:53 -0.91902 119.90803 222 ft 6 kts 321°
2026-04-20 06:53 -0.91867 119.90785 222 ft 6 kts 336°
2026-04-20 06:53 -0.91829 119.90768 221 ft 7 kts 336°
2026-04-20 06:53 -0.91794 119.90744 221 ft 4 kts 280°
2026-04-20 06:54 -0.91801 119.90716 220 ft 4 kts 248°
2026-04-20 06:54 -0.91808 119.90702 219 ft 1 kts 245°
2026-04-20 06:54 -0.91809 119.90698 219 ft 0 kts 245°